Weather History for Ruidoso, NM

Change the Weather History Date:

Sunday, September 22, 2013

  Actual Average Record
Temperature  
Mean Temperature 60 °F -  
Max Temperature 73 °F 72 °F 82 °F (2005)
Min Temperature 48 °F 49 °F 44 °F (2002)
Degree Days  
Heating Degree Days 4    
Growing Degree Days 10 (Base 50)    
Moisture  
Dew Point 44 °F    
Average Humidity 60    
Maximum Humidity 94    
Minimum Humidity 29    
Precipitation  
Precipitation 0.00 in - - ()
Sea Level Pressure  
Sea Level Pressure 30.05 in    
Wind  
Wind Speed 8 mph (SW)    
Max Wind Speed 22 mph    
Max Gust Speed 29 mph    
Visibility 10 miles    
Events      
Averages and records for this station are not official NWS values.
T = Trace of Precipitation, MM = Missing Value Source: NWS Daily Summary

Daily Weather History Graph

Daily Weather History Graph

Search for Another Location

Airport:

Trip Planner

Search our weather history database for the weather conditions in past years. The results will help you decide how hot, cold, wet, or windy it might be!

Date:

Astronomy

Sep. 22, 2013 Rise Set
Actual Time 6:50 AM MDT 6:58 PM MDT
Civil Twilight 6:25 AM MDT 7:23 PM MDT
Nautical Twilight 5:56 AM MDT 7:52 PM MDT
Astronomical Twilight 5:27 AM MDT 8:21 PM MDT
Moon 9:02 PM MDT (9/22) 10:01 AM MDT (9/22)
Length of Visible Light 12h 57m
Length of Day
12h 07m
Waning Gibbous, 88% of the Moon is Illuminated
Sep 22
Waning Gibbous
Sep 26
Last Quarter
Oct 4
New
Oct 11
First Quarter
Oct 18
Full

Hourly Weather History & Observations

Time (MDT) Temp. Dew Point Humidity Pressure Visibility Wind Dir Wind Speed Gust Speed Precip Events Conditions
12:15 AM 53.6 °F 48.2 °F 82% 30.16 in 10.0 mi SW 10.4 mph - N/A   Clear
12:35 AM 53.6 °F 48.2 °F 82% 30.15 in 10.0 mi WSW 9.2 mph - N/A   Clear
12:55 AM 51.8 °F 46.4 °F 82% 30.15 in 10.0 mi WSW 8.1 mph - N/A   Clear
1:15 AM 51.8 °F 46.4 °F 82% 30.14 in 10.0 mi WSW 10.4 mph - N/A   Clear
1:35 AM 51.8 °F 46.4 °F 82% 30.14 in 10.0 mi West 8.1 mph - N/A   Clear
1:55 AM 50.0 °F 46.4 °F 87% 30.14 in 10.0 mi WSW 5.8 mph - N/A   Clear
2:15 AM 50.0 °F 46.4 °F 87% 30.13 in 10.0 mi WSW 6.9 mph - N/A   Clear
2:35 AM 50.0 °F 46.4 °F 87% 30.12 in 10.0 mi WSW 8.1 mph - N/A   Clear
2:55 AM 50.0 °F 46.4 °F 87% 30.12 in 10.0 mi WSW 8.1 mph - N/A   Clear
3:15 AM 50.0 °F 48.2 °F 94% 30.11 in 10.0 mi SW 10.4 mph - N/A   Clear
3:35 AM 50.0 °F 46.4 °F 87% 30.11 in 10.0 mi SW 9.2 mph - N/A   Clear
3:55 AM 50.0 °F 46.4 °F 87% 30.10 in 10.0 mi West 9.2 mph - N/A   Clear
4:15 AM 50.0 °F 44.6 °F 82% 30.10 in 10.0 mi SW 6.9 mph - N/A   Clear
4:35 AM 50.0 °F 46.4 °F 87% 30.10 in 10.0 mi SW 6.9 mph - N/A   Clear
4:55 AM 50.0 °F 46.4 °F 87% 30.10 in 10.0 mi SW 6.9 mph - N/A   Clear
5:15 AM 50.0 °F 46.4 °F 87% 30.10 in 10.0 mi WSW 5.8 mph - N/A   Clear
5:35 AM 48.2 °F 44.6 °F 87% 30.10 in 10.0 mi West 9.2 mph - N/A   Clear
5:55 AM 50.0 °F 44.6 °F 82% 30.10 in 10.0 mi West 8.1 mph - N/A   Clear
6:15 AM 50.0 °F 42.8 °F 76% 30.10 in 10.0 mi West 6.9 mph - N/A   Clear
6:35 AM 50.0 °F 41.0 °F 71% 30.10 in 10.0 mi West 8.1 mph - N/A   Clear
6:55 AM 50.0 °F 42.8 °F 76% 30.10 in 10.0 mi NW 4.6 mph - N/A   Clear
7:15 AM 50.0 °F 44.6 °F 82% 30.10 in 10.0 mi Calm Calm - N/A   Clear
7:35 AM 50.0 °F 46.4 °F 87% 30.10 in 10.0 mi Calm Calm - N/A   Clear
7:55 AM 53.6 °F 48.2 °F 82% 30.10 in 10.0 mi WNW 3.5 mph - N/A   Clear
8:15 AM 53.6 °F 48.2 °F 82% 30.11 in 10.0 mi WNW 4.6 mph - N/A   Clear
8:35 AM 55.4 °F 48.2 °F 77% 30.11 in 10.0 mi NW 3.5 mph - N/A   Clear
8:55 AM 57.2 °F 48.2 °F 72% 30.11 in 10.0 mi NW 3.5 mph - N/A   Clear
9:15 AM 59.0 °F 48.2 °F 67% 30.11 in 10.0 mi West 3.5 mph - N/A   Clear
9:35 AM 60.8 °F 46.4 °F 59% 30.11 in 10.0 mi Calm Calm - N/A   Clear
9:55 AM 62.6 °F 48.2 °F 59% 30.11 in 10.0 mi ENE 4.6 mph - N/A   Clear
10:15 AM 62.6 °F 48.2 °F 59% 30.11 in 10.0 mi NNE 3.5 mph - N/A   Clear
10:35 AM 64.4 °F 48.2 °F 56% 30.10 in 10.0 mi NE 5.8 mph - N/A   Clear
10:55 AM 64.4 °F 46.4 °F 52% 30.10 in 10.0 mi NE 5.8 mph - N/A   Clear
11:15 AM 66.2 °F 44.6 °F 46% 30.10 in 10.0 mi North 5.8 mph - N/A   Clear
11:35 AM 66.2 °F 44.6 °F 46% 30.09 in 10.0 mi NNE 5.8 mph - N/A   Clear
11:55 AM 66.2 °F 44.6 °F 46% 30.09 in 10.0 mi NE 4.6 mph - N/A   Partly Cloudy
12:15 PM 68.0 °F 44.6 °F 43% 30.08 in 10.0 mi Calm Calm - N/A   Partly Cloudy
12:35 PM 68.0 °F 44.6 °F 43% 30.07 in 10.0 mi SSW 9.2 mph - N/A   Clear
12:55 PM 68.0 °F 44.6 °F 43% 30.06 in 10.0 mi SSW 12.7 mph 16.1 mph N/A   Clear
1:15 PM 69.8 °F 41.0 °F 35% 30.05 in 10.0 mi SSW 6.9 mph 18.4 mph N/A   Clear
1:35 PM 69.8 °F 39.2 °F 33% 30.04 in 10.0 mi South 15.0 mph 25.3 mph N/A   Clear
1:55 PM 71.6 °F 37.4 °F 29% 30.03 in 10.0 mi SSW 11.5 mph - N/A   Clear
2:15 PM 71.6 °F 39.2 °F 31% 30.02 in 10.0 mi SW 11.5 mph 16.1 mph N/A   Clear
2:35 PM 71.6 °F 37.4 °F 29% 30.01 in 10.0 mi SW 3.5 mph - N/A   Clear
2:55 PM 71.6 °F 41.0 °F 33% 30.00 in 10.0 mi South 10.4 mph 17.3 mph N/A   Clear
3:15 PM 73.4 °F 39.2 °F 29% 30.00 in 10.0 mi South 9.2 mph 18.4 mph N/A   Clear
3:35 PM 71.6 °F 39.2 °F 31% 29.99 in 10.0 mi SSW 10.4 mph 17.3 mph N/A   Clear
3:55 PM 71.6 °F 41.0 °F 33% 29.97 in 10.0 mi SSW 19.6 mph 24.2 mph N/A   Clear
4:15 PM 71.6 °F 41.0 °F 33% 29.96 in 10.0 mi SW 20.7 mph 28.8 mph N/A   Clear
4:35 PM 71.6 °F 42.8 °F 35% 29.96 in 10.0 mi SW 21.9 mph 27.6 mph N/A   Clear
4:55 PM 69.8 °F 44.6 °F 40% 29.96 in 10.0 mi SW 19.6 mph - N/A   Clear
5:15 PM 69.8 °F 44.6 °F 40% 29.96 in 10.0 mi SW 19.6 mph 24.2 mph N/A   Clear
5:35 PM 68.0 °F 42.8 °F 40% 29.96 in 10.0 mi SW 18.4 mph 24.2 mph N/A   Clear
5:55 PM 68.0 °F 42.8 °F 40% 29.97 in 10.0 mi WSW 12.7 mph - N/A   Clear
6:15 PM 68.0 °F 44.6 °F 43% 29.96 in 10.0 mi SW 12.7 mph - N/A   Clear
6:35 PM 66.2 °F 42.8 °F 43% 29.96 in 10.0 mi SW 9.2 mph - N/A   Clear
6:55 PM 64.4 °F 44.6 °F 49% 29.96 in 10.0 mi South 4.6 mph - N/A   Clear
7:15 PM 64.4 °F 42.8 °F 45% 29.96 in 10.0 mi Calm Calm - N/A   Clear
7:35 PM 62.6 °F 44.6 °F 52% 29.95 in 10.0 mi SSE 6.9 mph - N/A   Clear
7:55 PM 62.6 °F 44.6 °F 52% 29.96 in 10.0 mi SSW 4.6 mph - N/A   Clear
8:15 PM 62.6 °F 42.8 °F 48% 29.96 in 10.0 mi South 5.8 mph - N/A   Clear
8:35 PM 62.6 °F 42.8 °F 48% 29.98 in 10.0 mi South 6.9 mph - N/A   Clear
8:55 PM 60.8 °F 42.8 °F 52% 29.97 in 10.0 mi SE 8.1 mph - N/A   Clear
9:15 PM 60.8 °F 42.8 °F 52% 29.97 in 10.0 mi South 9.2 mph - N/A   Clear
9:35 PM 59.0 °F 42.8 °F 55% 29.97 in 10.0 mi South 8.1 mph - N/A   Clear
9:55 PM 59.0 °F 41.0 °F 51% 29.97 in 10.0 mi SSW 6.9 mph - N/A   Clear
10:15 PM 59.0 °F 42.8 °F 55% 29.97 in 10.0 mi East 8.1 mph - N/A   Clear
10:35 PM 60.8 °F 42.8 °F 52% 29.97 in 10.0 mi SE 3.5 mph - N/A   Partly Cloudy
10:55 PM 60.8 °F 42.8 °F 52% 29.96 in 10.0 mi SSE 9.2 mph - N/A   Partly Cloudy
11:15 PM 59.0 °F 44.6 °F 59% 29.96 in 10.0 mi South 8.1 mph - N/A   Clear
11:35 PM 59.0 °F 44.6 °F 59% 29.96 in 10.0 mi South 9.2 mph - N/A   Clear
11:55 PM 59.0 °F 44.6 °F 59% 29.96 in 10.0 mi SSW 9.2 mph - N/A   Clear